Date,TemperatureHighF,TemperatureAvgF,TemperatureLowF,DewpointHighF,DewpointAvgF,DewpointLowF,HumidityHigh,HumidityAvg,HumidityLow,PressureMaxIn,PressureMinIn,WindSpeedMaxMPH,WindSpeedAvgMPH,GustSpeedMaxMPH,PrecipitationSumIn
2013-1-1,52.9,40.6,29.7,30.2,27.4,19.8,89,63,28,30.25,30.10,9,1,9,0.01
2013-1-2,60.2,43.7,29.5,29.9,27.6,22.6,87,58,24,30.13,29.98,8,1,8,0.00
2013-1-3,60.9,46.2,35.4,30.0,27.6,24.3,72,50,28,30.17,30.01,15,2,15,0.00
2013-1-4,57.8,46.8,38.9,30.4,28.6,26.9,66,50,32,30.27,30.14,14,3,14,0.00
2013-1-5,63.1,45.6,32.2,30.9,26.9,18.6,82,52,19,30.33,30.20,3,1,6,0.00
2013-1-6,66.8,51.2,38.6,27.1,21.7,16.2,60,34,15,30.21,29.97,8,3,11,0.00
2013-1-7,57.7,44.5,31.2,28.2,27.0,24.8,79,52,31,29.98,29.85,8,2,15,0.00
2013-1-8,63.2,46.4,30.8,29.4,25.7,21.5,81,49,22,30.12,29.92,5,1,7,0.00
2013-1-9,71.0,53.0,36.3,26.2,19.9,12.7,61,33,11,30.20,30.05,10,3,15,0.00
2013-1-10,68.0,55.8,43.6,36.2,22.2,17.0,63,29,16,30.07,29.83,10,4,19,0.00
2013-1-11,50.0,40.9,32.2,36.0,23.7,10.4,88,55,24,30.10,29.94,10,2,19,0.03
2013-1-12,48.8,35.0,25.4,17.6,12.8,7.3,66,42,21,30.10,29.99,11,1,11,0.00
2013-1-13,48.9,34.4,24.7,14.0,10.6,2.1,57,40,15,30.12,30.00,5,2,10,0.00
2013-1-14,46.1,32.3,22.2,14.3,7.5,1.1,63,38,18,30.20,30.04,8,2,14,0.00
2013-1-15,47.9,33.0,18.3,7.3,2.7,-5.5,58,31,11,30.34,30.02,6,2,12,0.00
2013-1-16,59.0,41.2,23.4,14.6,8.8,3.6,49,29,13,30.36,30.20,5,1,9,0.00
2013-1-17,70.3,52.1,32.6,17.7,14.4,11.2,46,26,11,30.25,30.13,18,4,18,0.00
2013-1-18,74.3,57.6,45.6,23.8,18.2,9.9,41,23,9,30.24,30.11,11,3,12,0.00
2013-1-19,75.8,55.5,35.6,25.2,20.4,14.9,48,28,11,30.25,30.13,5,1,7,0.00
2013-1-20,77.3,56.3,40.7,30.7,25.5,22.6,52,33,17,30.18,30.04,5,1,11,0.00
2013-1-21,79.0,58.4,42.8,34.3,29.4,25.7,59,36,19,30.14,30.03,5,1,9,0.00
2013-1-22,81.3,61.0,45.1,35.5,31.5,28.0,59,36,16,30.20,30.10,5,1,8,0.00
2013-1-23,81.9,61.9,45.6,34.6,31.3,28.1,53,34,16,30.24,30.12,5,1,8,0.00
2013-1-24,65.5,59.5,54.4,52.9,43.0,32.3,77,56,39,30.27,30.18,3,1,5,0.03
2013-1-25,77.1,63.1,50.6,49.2,47.4,44.5,83,59,33,30.22,30.02,3,1,5,0.00
2013-1-26,69.7,60.7,54.7,59.7,52.7,47.5,94,77,50,30.04,29.95,10,2,17,0.81
2013-1-27,66.0,58.3,50.2,52.2,49.5,46.1,94,74,50,30.07,29.96,5,2,9,0.00
2013-1-28,58.8,51.5,44.0,48.9,40.3,29.9,89,66,48,30.04,29.95,10,4,18,0.06
2013-1-29,53.9,45.4,38.0,34.4,26.5,18.1,75,50,26,30.20,30.03,9,4,18,0.00
2013-1-30,58.1,44.6,30.9,30.7,24.6,17.6,89,50,22,30.34,30.20,6,2,11,0.00
2013-1-31,61.5,46.2,33.0,35.8,29.8,24.6,79,56,28,30.26,30.11,5,1,9,0.00
2013-2-1,72.5,51.2,34.5,34.6,31.2,25.6,81,52,18,30.22,30.13,5,1,9,0.00
2013-2-2,75.7,55.7,40.3,38.7,31.6,22.7,67,44,15,30.27,30.13,5,1,7,0.00
2013-2-3,69.4,58.9,51.1,39.9,36.0,27.9,63,44,23,30.16,29.99,5,1,8,0.00
2013-2-4,69.8,56.7,45.0,40.8,38.7,36.8,77,53,32,30.08,29.98,3,1,7,0.00
2013-2-5,74.8,57.5,43.8,43.0,40.4,36.2,79,56,25,30.06,29.95,6,2,12,0.00
2013-2-6,72.6,57.9,45.7,42.6,38.8,35.1,77,52,27,30.07,29.95,7,2,13,0.00
2013-2-7,70.4,55.9,43.9,40.0,35.6,22.9,76,50,18,30.14,29.99,4,1,8,0.00
2013-2-8,70.6,57.6,48.0,35.8,26.7,12.9,52,34,11,29.99,29.82,11,4,19,0.00
2013-2-9,55.1,46.0,38.7,38.2,29.6,23.0,87,55,32,30.05,29.84,8,2,14,0.12
2013-2-10,58.1,44.4,32.3,30.3,26.0,20.4,81,52,25,30.06,29.95,5,2,9,0.00
2013-2-11,52.2,39.9,33.2,36.6,29.7,23.0,92,69,37,30.17,29.98,10,2,18,0.26
2013-2-12,53.4,41.7,31.3,36.8,31.6,27.2,94,70,40,30.27,30.16,4,2,9,0.00
2013-2-13,61.1,46.0,31.7,29.5,26.0,17.1,83,50,20,30.21,30.09,4,2,8,0.00
2013-2-14,66.3,49.4,34.1,31.7,28.3,22.3,79,49,20,30.17,30.04,6,2,11,0.00
2013-2-15,72.3,54.4,39.4,36.5,28.0,17.3,74,42,16,30.26,30.13,4,1,11,0.00
2013-2-16,75.6,59.7,40.0,22.9,15.4,5.7,49,21,7,30.27,30.03,9,4,15,0.00
2013-2-17,75.5,60.6,46.6,23.8,15.6,5.9,34,19,7,30.03,29.89,8,3,13,0.00
2013-2-18,71.4,55.2,40.9,24.2,20.0,11.6,47,28,11,30.09,29.94,5,1,8,0.00
2013-2-19,72.8,58.5,45.0,31.8,18.9,7.7,45,24,9,29.97,29.75,18,5,19,0.00
2013-2-20,52.4,42.2,33.4,40.5,34.2,31.3,94,75,46,29.97,29.75,12,4,23,0.67
2013-2-21,53.0,43.4,33.5,37.7,34.3,31.6,95,73,47,30.06,29.95,5,2,9,0.12
2013-2-22,56.7,46.0,36.3,39.7,33.9,27.3,92,65,40,30.16,30.01,6,1,11,0.00
2013-2-23,65.3,48.6,33.4,34.0,29.7,21.8,85,53,21,30.15,29.87,9,1,18,0.00
2013-2-24,52.9,45.5,36.4,32.4,20.9,7.1,74,42,17,30.10,29.83,13,4,22,0.00
2013-2-25,59.7,44.6,29.3,23.9,19.6,15.2,71,40,20,30.21,30.05,4,1,9,0.00
2013-2-26,64.3,47.7,31.8,24.4,20.5,10.7,66,38,13,30.09,29.98,7,2,13,0.00
2013-2-27,65.3,49.8,34.8,24.1,14.4,5.0,58,28,10,30.21,30.09,7,2,12,0.00
2013-2-28,68.3,50.9,31.5,21.7,16.0,7.9,62,29,11,30.31,30.20,8,2,13,0.00
2013-3-1,74.9,63.9,41.4,28.9,23.4,13.9,43,23,12,30.32,30.20,4,2,8,0.00
2013-3-2,83.5,62.6,41.9,32.3,26.3,17.0,54,29,9,30.31,30.13,4,1,7,0.00
2013-3-3,82.2,65.1,47.6,31.3,24.7,16.8,41,24,10,30.15,29.96,8,2,15,0.00
2013-3-4,74.3,64.8,53.3,33.9,29.5,19.0,47,27,16,30.10,29.92,10,3,16,0.00
2013-3-5,80.8,63.3,47.3,34.6,30.5,23.1,53,33,14,30.14,30.00,8,2,13,0.00
2013-3-6,82.1,67.0,53.1,37.1,31.9,26.1,51,30,15,30.07,29.93,5,2,10,0.00
2013-3-7,81.7,65.7,49.7,33.2,27.6,13.7,48,27,9,30.01,29.91,8,2,15,0.00
2013-3-8,66.1,58.6,42.7,51.7,38.5,29.0,82,49,27,30.01,29.82,12,5,21,0.13
2013-3-9,56.0,48.0,42.3,42.3,38.3,35.8,89,70,50,30.10,30.00,8,2,15,0.03
2013-3-10,66.4,54.3,44.2,42.6,38.0,33.3,83,56,32,30.17,30.08,9,3,19,0.00
2013-3-11,73.5,57.1,40.3,36.4,32.7,25.1,77,45,19,30.20,30.04,6,2,11,0.00
2013-3-12,82.5,62.2,43.9,39.9,33.1,23.7,64,38,12,30.13,30.02,6,2,11,0.00
2013-3-13,88.4,68.5,49.2,39.7,32.1,20.6,59,32,9,30.17,30.05,5,2,11,0.00
2013-3-14,92.4,71.8,50.8,33.8,27.4,9.3,48,24,5,30.17,30.03,6,1,11,0.00
2013-3-15,94.9,73.2,55.1,33.4,27.9,12.0,37,21,5,30.09,29.94,9,2,17,0.00
2013-3-16,91.2,72.3,54.7,31.1,22.0,8.1,34,18,5,29.98,29.79,9,3,19,0.00
2013-3-17,85.1,69.3,54.1,29.1,23.0,18.7,28,18,9,29.97,29.86,10,3,20,0.00
2013-3-18,84.4,67.9,51.8,35.8,27.5,17.9,42,24,10,30.04,29.94,7,2,14,0.00
2013-3-19,82.0,67.2,52.8,35.7,30.8,28.1,45,27,15,30.08,29.98,7,2,15,0.00
2013-3-20,84.0,68.2,53.9,33.6,30.5,25.2,41,27,13,30.08,29.92,6,2,9,0.00
2013-3-21,79.0,67.5,55.1,36.1,33.2,29.5,41,29,19,29.92,29.79,6,2,9,0.00
2013-3-22,82.0,69.8,53.9,38.1,33.1,27.4,48,28,15,29.86,29.74,9,3,21,0.00
2013-3-23,76.6,64.0,51.9,38.1,22.5,5.2,47,25,7,30.02,29.85,9,2,18,0.00
2013-3-24,77.9,60.9,43.4,17.3,9.1,-7.0,33,15,4,30.05,29.91,7,2,13,0.00
2013-3-25,81.2,64.6,46.2,20.7,15.2,10.5,28,16,8,30.05,29.93,5,2,12,0.00
2013-3-26,89.2,70.9,54.6,22.3,16.8,6.0,25,14,5,30.02,29.87,7,3,12,0.00
2013-3-27,86.8,71.7,57.4,26.8,20.5,14.7,25,15,8,30.04,29.93,8,3,17,0.00
2013-3-28,86.4,71.5,55.1,33.7,23.5,17.2,29,18,9,30.09,29.99,7,2,15,0.00
2013-3-29,88.4,72.0,55.6,34.8,23.7,10.0,36,18,6,30.13,30.03,7,2,15,0.00
2013-3-30,84.0,69.9,57.7,30.9,24.3,16.3,28,19,9,30.10,29.98,8,2,15,0.00
2013-3-31,88.0,70.7,51.4,31.2,26.8,19.3,43,22,10,30.09,29.94,6,2,11,0.00
2013-4-1,84.4,69.8,52.6,37.2,30.0,22.8,48,24,15,30.06,29.93,7,2,12,0.00
2013-4-2,80.4,66.2,49.3,27.4,23.8,18.5,42,22,11,30.02,29.92,9,2,15,0.00
2013-4-3,84.1,67.5,50.3,30.9,25.9,20.8,35,22,11,30.08,29.99,6,2,11,0.00
2013-4-4,90.6,72.4,53.6,29.5,23.3,8.7,33,18,5,30.11,29.95,6,2,14,0.00
2013-4-5,89.8,75.3,59.6,32.5,28.5,23.4,31,19,10,30.03,29.90,9,3,16,0.00
2013-4-6,88.2,73.2,55.2,36.7,31.8,23.2,43,23,12,30.04,29.88,9,2,13,0.00
2013-4-7,87.8,73.4,57.5,38.0,32.9,23.1,47,26,11,29.95,29.81,6,2,12,0.00
2013-4-8,84.1,70.2,48.2,45.2,35.1,25.6,88,30,14,29.82,29.48,17,7,29,0.15
2013-4-9,67.1,58.0,47.0,45.3,32.5,22.3,91,44,20,29.93,29.70,9,5,18,0.03
2013-4-10,69.6,58.9,43.9,34.7,29.6,23.3,66,35,18,30.03,29.93,8,2,14,0.00
2013-4-11,80.6,63.9,46.0,33.9,28.3,22.4,54,30,13,30.03,29.83,6,2,10,0.00
2013-4-12,78.9,66.2,55.2,30.4,26.5,22.5,35,23,15,29.89,29.80,6,1,11,0.00
2013-4-13,87.4,70.2,49.7,30.4,26.5,19.9,44,22,9,29.93,29.77,7,3,13,0.00
2013-4-14,86.8,73.5,56.4,38.8,31.1,24.1,39,23,11,29.87,29.74,9,4,18,0.00
2013-4-15,88.4,75.1,61.6,39.6,33.3,25.1,41,24,11,29.86,29.76,10,5,20,0.00
2013-4-16,86.4,73.5,61.6,40.2,32.7,25.3,37,24,12,29.89,29.77,11,5,23,0.00
2013-4-17,70.2,61.8,54.3,41.5,24.3,8.7,56,27,12,30.05,29.84,10,4,18,0.00
2013-4-18,72.4,59.4,42.4,19.3,13.1,6.5,35,18,8,30.15,30.03,8,3,15,0.00
2013-4-19,80.7,64.1,42.0,17.8,5.2,-16.6,34,12,2,30.18,29.98,6,2,11,0.00
2013-4-20,86.7,67.6,45.5,21.5,13.5,5.4,25,14,6,30.03,29.93,8,2,14,0.00
2013-4-21,91.7,73.0,53.9,22.1,17.8,9.8,27,14,5,30.09,29.96,5,2,12,0.00
2013-4-22,94.4,77.0,55.5,24.9,17.9,6.9,26,13,4,30.03,29.84,8,2,18,0.00
2013-4-23,91.2,76.3,60.0,29.5,21.5,12.5,23,14,6,29.94,29.84,8,2,15,0.00
2013-4-24,93.0,77.6,61.2,31.4,23.9,16.0,27,15,7,29.99,29.87,8,3,16,0.00
2013-4-25,85.6,74.9,64.2,32.5,27.6,13.6,29,18,8,30.08,29.92,10,4,22,0.00
2013-4-26,88.2,71.5,53.7,32.4,27.1,19.9,40,21,9,30.15,30.04,5,2,9,0.00
2013-4-27,91.7,75.6,55.3,30.6,25.5,19.9,36,18,8,30.12,29.95,5,2,11,0.00
2013-4-28,95.6,87.0,71.0,20.3,15.7,11.5,11,7,5,29.94,29.83,6,2,13,0.00
2013-4-29,98.9,80.8,58.8,23.9,18.3,8.9,22,11,4,29.91,29.75,8,2,14,0.00
2013-4-30,97.8,81.5,62.0,27.1,21.0,12.2,26,12,5,29.89,29.77,8,3,18,0.00
2013-5-1,93.0,78.1,63.8,27.3,22.1,6.2,22,14,5,30.05,29.88,7,2,13,0.00
2013-5-2,92.9,78.9,63.1,26.7,17.4,7.9,23,11,6,30.15,30.02,14,4,19,0.00
2013-5-3,88.2,75.3,62.0,24.2,18.0,9.7,22,13,6,30.11,29.86,12,6,19,0.00
2013-5-4,93.8,79.0,62.6,30.0,20.4,10.0,20,12,5,29.90,29.77,9,4,18,0.00
2013-5-5,91.3,78.9,66.1,48.0,28.5,18.3,52,17,8,29.99,29.83,11,5,19,0.00
2013-5-6,86.2,73.2,59.2,51.6,41.6,33.0,68,36,16,30.03,29.93,7,3,16,0.02
2013-5-7,85.8,71.5,57.3,44.7,36.2,21.3,47,30,10,30.05,29.91,8,3,18,0.00
2013-5-8,84.0,70.0,56.6,44.0,39.2,31.5,56,35,17,30.08,29.95,6,2,12,0.00
2013-5-9,85.1,72.6,57.6,44.7,35.2,19.5,59,29,10,30.05,29.93,6,2,11,0.00
2013-5-10,88.8,73.3,58.2,40.4,36.5,27.5,51,28,13,30.10,29.97,11,2,17,0.00
2013-5-11,88.4,76.6,61.1,40.0,35.8,29.6,39,24,14,30.14,30.04,11,5,19,0.00
2013-5-12,92.1,81.1,68.5,40.0,34.2,28.6,31,20,11,30.19,30.00,12,5,20,0.00
2013-5-13,95.9,83.5,67.9,34.5,28.1,17.0,29,14,7,30.12,29.96,10,3,17,0.00
2013-5-14,99.8,86.1,71.4,38.5,31.9,18.1,28,16,8,30.05,29.89,7,3,14,0.00
2013-5-15,99.8,85.3,66.7,38.2,34.2,29.6,33,18,9,30.06,29.90,9,4,19,0.00
2013-5-16,100.2,84.5,66.2,34.5,28.6,16.4,29,15,5,30.00,29.83,8,3,14,0.00
2013-5-17,96.4,81.3,67.7,35.6,29.2,18.5,26,16,7,29.97,29.86,8,3,15,0.00
2013-5-18,92.9,80.3,67.5,44.1,29.2,19.4,32,17,8,30.00,29.89,9,3,14,0.00
2013-5-19,92.9,79.0,62.3,46.6,37.2,27.2,48,25,10,30.00,29.84,8,2,15,0.00
2013-5-20,94.1,80.0,62.8,40.5,32.0,21.3,40,20,9,29.97,29.86,9,3,21,0.00
2013-5-21,96.9,80.3,60.0,26.3,19.8,7.8,26,12,4,29.98,29.83,6,2,12,0.00
2013-5-22,100.9,84.0,63.8,31.9,25.1,14.2,24,13,6,29.90,29.75,8,3,14,0.00
2013-5-23,100.0,85.2,69.0,35.1,29.8,17.2,26,15,6,29.94,29.82,8,4,15,0.00
2013-5-24,100.0,84.2,66.7,44.6,30.3,10.2,34,18,4,30.00,29.89,9,3,15,0.00
2013-5-25,99.3,83.9,67.2,37.4,25.9,3.6,29,15,3,30.01,29.90,7,3,15,0.00
2013-5-26,98.0,81.3,63.9,30.3,17.8,-0.5,26,12,3,30.03,29.91,8,3,14,0.00
2013-5-27,98.5,81.0,61.0,32.6,18.4,-5.6,23,12,2,29.97,29.80,7,2,13,0.00
2013-5-28,96.8,80.9,63.8,34.6,25.7,13.8,24,14,6,29.85,29.70,9,3,19,0.00
2013-5-29,95.6,82.3,65.6,50.6,36.7,29.7,38,21,10,29.85,29.74,7,3,13,0.00
2013-5-30,98.8,84.9,67.7,56.7,44.7,34.0,50,28,12,29.92,29.82,7,3,15,0.00
2013-5-31,99.3,85.6,70.6,58.3,49.5,36.6,62,33,15,29.96,29.84,8,2,15,0.00
2013-6-1,107.4,89.1,67.8,42.7,36.6,18.7,36,18,5,29.92,29.78,5,2,12,0.00
2013-6-2,108.0,91.7,73.4,44.9,38.4,26.0,32,17,7,29.89,29.75,9,3,14,0.00
2013-6-3,104.9,90.4,74.8,41.6,30.8,17.1,26,14,5,29.93,29.81,7,3,16,0.00
2013-6-4,103.6,88.8,71.1,44.9,36.2,25.7,31,17,7,29.95,29.84,7,3,15,0.00
2013-6-5,103.0,86.9,68.1,35.9,27.2,12.6,28,13,5,29.98,29.84,7,2,14,0.00
2013-6-6,105.2,88.5,67.5,33.5,29.6,22.6,24,13,7,29.92,29.78,6,2,14,0.00
2013-6-7,109.0,91.7,71.1,34.3,29.6,22.9,25,12,6,29.89,29.74,5,2,11,0.00
2013-6-8,107.2,91.6,71.3,41.6,29.2,18.2,25,12,5,29.93,29.83,8,3,15,0.00
2013-6-9,106.0,90.8,72.1,37.7,28.4,12.9,27,13,4,29.99,29.86,7,2,11,0.00
2013-6-10,108.9,91.9,70.6,39.5,31.3,17.0,29,14,5,29.99,29.85,7,2,14,0.00
2013-6-11,108.5,92.3,70.9,36.0,27.1,8.9,27,11,3,29.99,29.87,6,2,18,0.00
2013-6-12,108.5,92.2,72.9,41.5,33.7,29.1,25,14,7,30.02,29.88,7,2,17,0.00
2013-6-13,104.8,91.5,74.9,51.2,44.8,39.8,31,21,12,30.02,29.85,7,2,14,0.00
2013-6-14,104.4,91.6,75.9,55.6,50.0,40.7,45,26,16,29.97,29.81,7,2,14,0.00
2013-6-15,105.6,91.5,76.3,71.3,50.3,45.3,59,26,15,29.98,29.86,8,3,13,0.03
2013-6-16,106.7,91.4,76.2,54.1,44.0,28.8,44,23,9,30.02,29.88,9,3,16,0.00
2013-6-17,105.9,90.6,69.7,35.1,30.2,22.8,28,13,7,30.02,29.86,7,2,13,0.00
2013-6-18,107.9,90.4,71.3,30.0,14.9,-99.9,19,9,1,29.96,29.81,7,2,19,0.00
2013-6-19,107.3,90.7,71.2,32.6,22.5,10.3,16,9,4,29.89,29.76,8,3,15,0.00
2013-6-20,105.4,88.3,72.2,35.4,25.1,7.4,24,12,3,29.93,29.81,7,2,13,0.00
2013-6-21,107.0,91.1,73.7,41.4,30.2,13.6,28,14,4,29.96,29.83,8,3,14,0.00
2013-6-22,106.0,90.4,70.3,35.9,27.8,8.4,26,13,3,29.96,29.81,8,3,17,0.00
2013-6-23,104.5,89.7,71.2,38.7,28.5,10.5,24,13,4,29.92,29.77,9,4,22,0.00
2013-6-24,103.9,89.4,70.9,38.4,29.6,16.1,25,13,5,29.95,29.84,9,4,17,0.00
2013-6-25,104.7,89.1,72.5,42.6,28.0,12.4,31,14,4,30.03,29.90,6,2,15,0.00
2013-6-26,104.0,88.6,68.0,35.0,27.4,18.8,27,12,5,30.10,29.97,5,2,12,0.00
2013-6-27,105.8,91.2,72.6,44.2,36.3,22.5,30,15,10,30.13,29.97,8,3,16,0.00
2013-6-28,111.1,94.6,75.5,44.0,38.7,33.8,26,15,8,30.03,29.87,6,2,11,0.00
2013-6-29,111.4,97.8,82.9,49.0,41.1,36.0,22,15,9,29.96,29.82,12,2,18,0.00
2013-6-30,112.0,96.8,80.6,62.1,52.4,44.4,53,25,12,30.04,29.78,11,4,18,0.00
2013-7-1,109.4,91.8,80.6,61.1,57.2,50.8,49,34,16,29.99,29.85,10,2,24,0.00
2013-7-2,103.0,90.0,72.9,65.0,57.9,53.4,76,36,21,30.10,29.90,17,5,26,0.07
2013-7-3,106.8,93.0,79.4,56.7,53.0,46.3,44,28,17,29.99,29.77,9,4,14,0.00
2013-7-4,106.9,94.9,82.3,60.0,55.4,50.2,46,28,16,29.94,29.77,8,3,14,0.00
2013-7-5,101.6,86.5,75.3,69.9,63.2,56.8,83,49,27,29.95,29.83,9,2,12,0.02
2013-7-6,106.8,89.5,74.9,66.7,62.2,55.3,72,44,19,29.91,29.76,8,2,14,0.00
2013-7-7,108.7,91.5,79.7,64.9,60.2,52.9,57,37,18,29.92,29.80,10,2,21,0.00
2013-7-8,106.9,94.9,85.0,62.9,58.4,51.1,46,31,18,30.00,29.88,9,3,17,0.00
2013-7-9,101.0,91.2,80.2,70.5,64.1,58.7,69,42,29,30.11,29.94,8,3,14,0.00
2013-7-10,100.0,84.5,74.8,71.9,67.5,62.1,85,59,31,30.08,29.94,9,2,21,0.11
2013-7-11,93.8,82.9,72.5,73.2,68.0,64.4,90,63,43,30.06,29.94,9,2,13,0.09
2013-7-12,96.3,84.1,74.0,72.5,65.7,58.9,86,55,33,30.06,29.91,8,2,17,0.07
2013-7-13,102.7,89.0,76.5,67.2,62.7,57.6,69,44,26,30.04,29.90,7,2,14,0.00
2013-7-14,104.1,91.7,80.8,65.5,61.5,58.8,59,38,25,30.01,29.86,7,2,14,0.00
2013-7-15,104.8,88.3,78.6,71.4,63.9,58.3,74,47,24,29.95,29.81,13,2,22,0.17
2013-7-16,91.5,82.0,76.4,68.7,66.0,63.0,76,59,40,30.09,29.94,10,4,14,0.01
2013-7-17,100.6,87.4,76.0,68.0,60.7,54.6,76,45,24,30.09,29.95,12,3,17,0.00
2013-7-18,98.0,88.4,80.5,61.4,57.4,54.1,46,36,24,30.06,29.90,12,6,20,0.00
2013-7-19,95.7,85.6,79.4,72.0,61.6,58.9,72,45,31,30.02,29.88,9,3,15,0.04
2013-7-20,95.8,81.2,73.7,71.3,67.8,64.1,87,66,39,29.99,29.84,12,2,22,0.27
2013-7-21,94.2,82.0,74.2,72.0,68.2,62.8,92,65,37,30.02,29.92,5,2,14,0.00
2013-7-22,96.0,83.7,72.9,69.8,65.1,59.9,82,56,33,30.06,29.96,7,2,16,0.00
2013-7-23,99.1,87.5,74.3,65.1,61.8,59.1,68,44,30,30.07,29.92,7,2,12,0.00
2013-7-24,93.3,84.7,77.5,71.1,64.7,60.2,80,53,35,30.02,29.91,9,2,19,0.06
2013-7-25,95.4,83.4,76.1,71.2,67.7,64.5,84,61,38,30.08,29.99,5,1,11,0.00
2013-7-26,97.4,81.7,76.3,75.2,68.9,62.1,79,67,34,30.16,30.06,10,1,15,0.13
2013-7-27,96.7,83.5,73.1,74.5,67.4,63.7,86,61,36,30.10,29.93,8,1,15,0.22
2013-7-28,103.3,88.6,73.6,67.9,58.8,47.9,82,42,20,29.97,29.85,7,2,12,0.00
2013-7-29,103.0,88.9,73.3,53.1,50.8,47.2,48,29,17,30.07,29.95,5,1,13,0.00
2013-7-30,104.3,91.1,75.1,58.0,54.5,51.1,50,31,18,30.17,30.03,6,1,11,0.00
2013-7-31,106.0,91.7,81.0,59.7,56.4,51.4,48,32,18,30.12,29.99,8,1,12,0.00
2013-8-1,93.6,86.9,82.9,64.4,61.2,57.7,53,42,32,30.05,29.97,11,3,21,0.00
2013-8-2,95.7,84.8,79.1,67.2,63.5,61.1,57,49,36,30.03,29.96,7,2,9,0.00
2013-8-3,103.4,88.3,74.3,62.6,58.9,54.2,62,40,22,30.07,29.95,6,2,11,0.00
2013-8-4,100.7,89.0,81.0,64.9,59.3,52.6,52,38,24,30.09,29.96,7,1,10,0.00
2013-8-5,97.1,83.9,69.6,68.2,60.4,53.0,90,49,25,30.11,29.95,10,4,15,0.16
2013-8-6,85.0,76.7,69.6,68.8,64.5,59.4,93,68,45,30.10,30.02,10,2,18,0.05
2013-8-7,97.2,82.9,69.2,66.9,59.5,52.1,87,50,26,30.10,29.97,6,1,13,0.00
2013-8-8,103.3,87.0,71.2,59.6,48.6,34.2,64,32,11,30.03,29.90,6,2,14,0.00
2013-8-9,105.9,88.5,68.7,51.3,45.7,38.6,52,25,13,30.01,29.89,7,2,15,0.00
2013-8-10,103.5,88.8,75.4,47.2,41.6,34.3,32,20,13,30.08,29.94,6,2,13,0.00
2013-8-11,103.0,88.1,72.3,59.8,52.6,36.8,49,31,21,30.05,29.90,12,2,17,0.00
2013-8-12,107.1,91.3,75.4,61.5,50.2,33.6,55,28,12,30.00,29.89,7,2,12,0.00
2013-8-13,105.6,89.6,73.9,45.9,39.8,35.1,35,19,10,30.06,29.91,5,2,12,0.00
2013-8-14,107.3,90.4,76.5,62.0,49.0,36.6,44,26,14,30.04,29.89,11,3,20,0.00
2013-8-15,105.1,91.3,77.8,61.0,57.4,48.3,53,34,19,30.05,29.91,9,2,17,0.00
2013-8-16,108.6,93.2,81.1,63.6,57.0,47.0,49,32,14,30.05,29.91,10,2,17,0.00
2013-8-17,109.5,92.6,79.7,63.1,57.3,47.1,52,33,15,30.05,29.86,11,2,18,0.00
2013-8-18,109.1,90.5,82.3,65.1,55.3,49.8,41,31,16,30.05,29.95,8,2,14,0.01
2013-8-19,106.6,91.8,80.1,59.5,55.6,49.1,49,31,17,30.05,29.90,5,1,9,0.00
2013-8-20,106.1,88.9,81.1,66.2,58.9,49.5,51,38,20,30.04,29.90,12,3,19,0.01
2013-8-21,98.3,86.6,77.8,62.5,58.5,54.9,59,40,25,30.04,29.93,7,1,13,0.00
2013-8-22,103.4,86.3,74.6,65.0,59.0,55.3,68,42,22,30.04,29.88,10,1,19,0.02
2013-8-23,101.3,84.5,72.4,65.3,60.0,56.7,68,46,25,30.00,29.83,9,2,13,0.00
2013-8-24,93.1,82.7,74.9,67.7,61.4,56.1,76,50,31,30.03,29.92,11,4,14,0.00
2013-8-25,96.5,80.5,73.9,73.6,68.2,62.0,84,68,33,30.07,29.98,6,1,13,0.03
2013-8-26,100.6,82.1,73.7,70.4,66.6,58.2,85,62,27,30.05,29.89,11,1,19,0.00
2013-8-27,102.8,87.4,70.4,67.1,59.6,51.5,85,45,19,29.98,29.84,11,3,22,0.00
2013-8-28,100.3,85.8,77.4,70.8,62.5,56.5,78,48,26,30.06,29.89,9,3,15,0.26
2013-8-29,86.0,77.0,72.8,71.6,69.5,66.6,92,78,55,30.16,30.05,3,1,6,0.18
2013-8-30,90.3,80.4,73.2,72.0,69.1,65.2,93,71,45,30.14,30.02,4,0,7,0.02
2013-8-31,97.6,85.2,73.9,70.0,65.6,58.4,86,56,29,30.07,29.94,6,2,16,0.01
2013-9-1,101.4,87.9,73.0,66.6,61.9,56.1,75,45,26,30.02,29.89,6,1,11,0.00
2013-9-2,98.9,86.2,77.2,64.2,60.8,51.9,64,44,22,30.07,29.88,9,1,14,0.00
2013-9-3,103.5,85.5,74.6,68.4,61.8,54.8,72,47,22,30.02,29.92,11,2,16,0.01
2013-9-4,103.3,87.9,72.3,64.4,56.0,48.5,71,39,18,30.04,29.92,9,2,14,0.00
2013-9-5,105.0,91.3,74.8,58.2,51.5,45.3,55,28,15,30.03,29.91,11,3,17,0.00
2013-9-6,102.0,87.0,77.2,64.3,56.1,51.8,53,36,20,30.04,29.91,11,2,19,0.00
2013-9-7,87.8,81.2,73.9,66.3,62.3,59.7,74,54,40,30.06,29.93,9,2,13,0.01
2013-9-8,85.4,77.1,72.8,71.2,66.1,60.9,84,70,50,29.98,29.87,5,2,9,0.12
2013-9-9,85.3,76.1,70.2,68.7,66.2,63.4,91,73,52,29.93,29.82,5,1,10,0.23
2013-9-10,90.3,77.2,65.3,66.6,61.3,55.8,91,62,33,30.01,29.89,7,2,13,0.03
2013-9-11,92.4,79.5,66.1,65.4,58.8,52.6,87,53,28,30.07,29.95,7,2,14,0.00
2013-9-12,97.0,83.0,67.7,62.7,56.2,49.6,70,43,24,29.99,29.83,7,2,13,0.00
2013-9-13,98.3,86.1,73.8,65.6,59.2,47.0,69,43,19,29.89,29.73,6,2,12,0.00
2013-9-14,101.7,88.5,77.9,63.5,57.3,47.8,59,38,18,29.84,29.73,9,3,13,0.00
2013-9-15,102.5,88.7,76.1,60.5,54.1,47.3,53,33,17,29.90,29.81,8,2,12,0.00
2013-9-16,101.8,90.8,80.1,59.9,56.4,46.3,47,33,18,29.94,29.82,9,4,16,0.00
2013-9-17,101.7,91.9,82.5,59.5,55.2,43.6,44,30,18,29.91,29.75,10,4,16,0.00
2013-9-18,103.3,88.8,75.9,50.4,44.8,36.8,38,23,11,29.88,29.75,6,2,12,0.00
2013-9-19,99.8,85.6,70.1,52.1,44.8,37.1,49,26,16,29.90,29.78,5,1,11,0.00
2013-9-20,101.8,85.3,68.9,57.0,47.4,38.6,42,28,15,29.94,29.82,8,2,12,0.00
2013-9-21,98.1,86.7,74.8,58.5,54.7,50.4,53,35,21,29.95,29.77,8,3,19,0.00
2013-9-22,95.3,83.2,71.7,64.4,52.6,34.8,57,37,20,29.87,29.73,10,4,19,0.00
2013-9-23,92.1,76.8,61.0,44.0,34.9,26.1,41,23,11,29.98,29.86,3,1,8,0.00
2013-9-24,98.9,80.5,62.7,42.8,36.3,29.7,40,22,10,30.04,29.88,5,2,11,0.00
2013-9-25,97.6,81.2,65.4,32.2,27.1,19.0,28,15,7,29.93,29.77,8,4,17,0.00
2013-9-26,94.7,80.3,64.4,58.5,37.3,21.9,56,23,15,29.85,29.73,10,4,20,0.00
2013-9-27,82.8,73.4,65.3,59.2,41.3,20.6,62,34,16,30.02,29.84,7,3,15,0.00
2013-9-28,88.7,72.8,55.4,42.5,32.7,22.8,35,23,17,30.11,30.00,7,2,11,0.00
2013-9-29,92.8,76.4,60.5,41.9,36.8,31.1,44,26,14,30.14,30.00,4,1,9,0.00
2013-9-30,92.8,75.7,58.6,39.4,32.8,23.9,44,24,9,30.06,29.92,4,1,11,0.00
2013-10-1,93.6,76.4,58.7,39.2,33.6,27.0,36,23,12,30.05,29.92,4,1,9,0.00
2013-10-2,92.6,76.8,61.1,46.8,40.4,36.1,47,29,15,30.04,29.89,6,1,10,0.00
2013-10-3,94.0,78.1,64.1,52.2,42.1,30.4,52,31,12,29.96,29.80,7,2,15,0.00
2013-10-4,87.9,74.3,59.8,46.0,36.6,14.6,46,27,14,30.05,29.89,8,2,13,0.00
2013-10-5,84.0,71.0,56.1,26.1,15.9,4.7,29,13,6,30.16,30.05,8,3,13,0.00
2013-10-6,89.3,71.5,49.6,23.9,19.2,15.5,35,15,7,30.16,30.03,5,1,10,0.00
2013-10-7,96.0,79.1,66.7,33.3,24.9,20.3,20,14,9,30.08,29.94,8,2,15,0.00
2013-10-8,91.6,76.9,61.9,35.2,30.0,23.5,32,19,11,29.98,29.84,7,3,13,0.00
2013-10-9,88.5,76.4,63.8,46.1,36.8,27.0,36,25,14,29.87,29.75,11,5,23,0.00
2013-10-10,71.9,64.1,56.8,51.4,45.9,40.1,71,52,32,30.02,29.82,11,4,20,0.00
2013-10-11,77.2,63.3,49.1,43.5,39.0,32.4,72,44,24,30.05,29.95,4,1,8,0.00
2013-10-12,86.8,68.3,50.5,38.6,34.8,31.4,54,32,15,30.02,29.90,6,2,12,0.00
2013-10-13,89.3,73.2,59.0,45.5,37.7,33.3,43,29,15,30.04,29.92,8,3,18,0.00
2013-10-14,83.5,70.4,56.7,44.8,38.4,32.1,60,34,18,30.09,29.96,6,1,10,0.00
2013-10-15,84.6,68.3,55.2,39.3,32.1,24.9,47,28,14,30.01,29.90,7,2,13,0.00
2013-10-16,80.7,64.5,48.0,29.2,22.3,9.8,43,22,7,30.11,30.01,6,1,13,0.00
2013-10-17,82.1,63.9,48.0,22.4,19.2,10.7,34,20,8,30.10,29.94,4,1,10,0.00
2013-10-18,82.3,64.7,47.1,25.4,22.1,18.8,39,21,11,30.06,29.97,4,1,8,0.00
2013-10-19,86.7,67.1,50.9,25.4,19.4,12.3,32,18,7,30.09,29.97,5,2,9,0.00
2013-10-20,85.3,66.5,49.1,21.0,17.3,13.6,29,17,7,30.02,29.90,5,2,11,0.00
2013-10-21,86.0,67.1,52.5,20.3,16.5,10.7,27,16,7,30.05,29.97,5,2,11,0.00
2013-10-22,89.7,71.5,52.4,23.6,17.0,7.8,23,14,5,30.09,29.95,8,2,11,0.00
2013-10-23,92.5,76.7,64.4,29.5,26.1,22.3,23,16,9,30.01,29.88,8,3,13,0.00
2013-10-24,92.6,74.2,59.3,31.2,25.5,20.8,26,17,9,30.04,29.91,7,2,14,0.00
2013-10-25,87.7,69.7,55.2,31.1,28.2,24.1,36,23,11,30.12,30.03,5,1,9,0.00
2013-10-26,87.6,69.0,52.5,33.0,28.9,24.4,37,24,11,30.16,30.02,5,1,8,0.00
2013-10-27,91.3,75.2,60.2,34.3,28.8,18.9,33,19,8,30.04,29.83,6,2,12,0.00
2013-10-28,83.3,70.1,55.2,37.4,32.8,23.7,44,27,12,29.96,29.86,12,4,23,0.00
2013-10-29,82.3,69.7,55.7,40.4,35.3,29.4,50,30,15,29.98,29.87,13,4,21,0.00
2013-10-30,69.9,58.6,47.4,39.6,34.3,27.1,65,42,28,30.07,29.94,8,2,15,0.00
2013-10-31,75.1,58.7,43.6,32.7,26.2,8.9,54,32,8,30.15,30.03,4,1,9,0.00
2013-11-1,79.9,60.2,42.5,27.8,24.6,19.3,45,28,13,30.19,30.04,5,1,7,0.00
2013-11-2,86.8,70.2,50.0,53.1,22.7,14.3,74,20,8,30.08,29.90,13,4,17,0.05
2013-11-3,82.7,68.3,58.9,53.4,46.6,37.2,76,50,25,30.00,29.80,6,2,11,0.01
2013-11-4,81.4,66.6,54.3,52.6,45.2,40.2,66,49,24,29.90,29.75,7,3,15,0.00
2013-11-5,71.9,61.2,51.4,47.1,43.4,38.1,76,54,32,30.15,29.90,5,2,12,0.00
2013-11-6,75.8,60.8,47.6,38.0,23.7,16.0,48,26,12,30.27,30.15,6,1,10,0.00
2013-11-7,81.7,68.7,55.7,29.4,22.2,10.4,25,17,14,30.23,30.06,14,5,21,0.00
2013-11-8,83.3,68.5,54.2,36.5,33.2,28.8,43,28,17,30.12,30.00,4,2,7,0.00
2013-11-9,82.8,66.4,52.0,38.7,35.1,32.1,48,33,20,30.15,30.04,5,1,7,0.00
2013-11-10,86.7,67.3,52.0,39.1,36.2,33.6,54,34,17,30.17,30.04,6,2,12,0.00
2013-11-11,89.8,69.0,52.1,41.2,36.8,33.4,50,33,16,30.13,30.02,5,1,9,0.00
2013-11-12,86.8,72.5,55.4,44.5,39.4,33.5,49,32,20,30.21,30.11,11,5,19,0.00
2013-11-13,80.7,69.8,61.6,44.9,42.9,40.8,49,38,28,30.19,30.03,12,5,20,0.00
2013-11-14,82.1,66.9,52.5,45.3,41.6,36.2,63,41,24,30.07,29.90,4,1,7,0.00
2013-11-15,76.7,66.6,55.9,54.7,45.7,35.4,64,48,33,29.91,29.71,11,4,18,0.00
2013-11-16,77.6,66.6,58.2,52.8,45.4,33.3,70,49,21,29.96,29.77,11,4,18,0.00
2013-11-17,76.7,63.6,51.2,50.3,46.0,43.9,82,55,32,30.09,29.95,7,1,12,0.00
2013-11-18,78.8,65.2,53.1,48.7,45.5,43.5,73,51,31,30.12,30.00,5,1,10,0.00
2013-11-19,80.7,63.5,50.3,44.5,40.5,32.6,67,45,18,30.06,29.89,5,1,9,0.00
2013-11-20,77.5,62.9,49.9,43.0,39.0,33.4,65,43,24,29.95,29.85,7,2,13,0.00
2013-11-21,74.8,63.6,53.7,56.1,44.7,35.9,91,53,31,29.98,29.89,5,2,11,0.11
2013-11-22,62.1,54.1,47.4,56.3,50.7,45.7,94,88,76,30.01,29.83,8,3,14,0.99
2013-11-23,55.0,49.8,47.1,49.4,46.7,44.8,96,89,74,30.09,29.99,6,2,9,0.98
2013-11-24,59.9,50.5,43.4,46.8,42.6,37.9,91,75,54,30.16,30.06,5,2,11,0.00
2013-11-25,60.2,48.4,39.5,42.6,39.5,35.6,92,73,48,30.22,30.13,5,1,8,0.00
2013-11-26,67.0,54.0,39.3,40.5,34.2,28.5,93,53,27,30.27,30.14,9,4,15,0.01
2013-11-27,65.0,57.0,52.9,28.5,25.9,22.6,38,31,21,30.16,30.02,12,6,25,0.00
2013-11-28,72.5,57.8,47.8,39.7,31.8,26.3,62,39,24,30.11,30.00,8,3,13,0.00
2013-11-29,74.3,58.8,46.8,43.6,39.7,35.3,72,52,25,30.19,30.07,7,2,11,0.00
2013-11-30,70.3,56.6,46.0,46.7,44.0,41.7,86,65,37,30.20,30.08,3,0,6,0.00
2013-12-1,72.0,57.5,49.1,48.6,45.8,42.8,85,67,36,30.23,30.13,4,0,7,0.00
2013-12-2,72.0,55.7,42.9,45.5,41.8,37.8,92,63,29,30.18,29.96,5,1,8,0.00
2013-12-3,74.8,59.9,46.0,42.4,35.8,21.7,67,44,16,29.97,29.77,7,2,13,0.00
2013-12-4,69.7,58.2,45.2,47.2,42.0,35.1,92,58,29,29.96,29.79,9,4,17,0.08
2013-12-5,51.4,45.3,37.1,44.6,36.5,26.1,93,73,48,30.10,29.92,5,1,11,0.12
2013-12-6,52.9,41.1,29.9,32.4,26.5,20.0,90,59,29,30.19,30.08,4,1,6,0.00
2013-12-7,59.4,43.4,31.2,33.5,28.0,21.3,87,59,23,30.10,29.98,4,1,8,0.00
2013-12-8,58.2,48.9,41.2,41.7,37.4,26.3,76,65,48,30.13,30.02,5,1,8,0.00
2013-12-9,52.2,43.2,34.3,27.6,20.8,16.4,65,42,27,30.28,30.09,5,1,11,0.00
2013-12-10,61.5,44.5,30.8,27.4,22.5,17.0,74,45,21,30.27,30.10,4,1,8,0.00
2013-12-11,72.3,52.9,36.4,39.3,32.7,25.3,74,49,28,30.20,30.11,5,1,8,0.00
2013-12-12,73.4,59.1,45.3,43.9,34.0,28.7,61,39,31,30.19,30.07,8,3,13,0.00
2013-12-13,63.7,49.2,37.8,35.4,32.4,29.8,80,55,30,30.20,30.10,4,1,6,0.00
2013-12-14,64.5,48.2,35.2,33.7,29.9,25.1,83,53,24,30.31,30.18,5,1,8,0.00
2013-12-15,67.6,51.0,35.3,30.2,27.3,21.4,71,43,19,30.31,30.18,4,1,7,0.00
2013-12-16,75.5,54.4,38.2,33.7,29.7,26.1,67,43,17,30.25,30.14,3,0,6,0.00
2013-12-17,81.5,57.6,40.7,35.6,31.1,27.1,64,40,14,30.25,30.10,2,0,5,0.00
2013-12-18,78.4,61.6,47.4,37.9,29.8,24.3,50,32,15,30.12,29.89,4,1,8,0.00
2013-12-19,71.1,60.7,49.6,42.5,29.3,24.1,70,32,18,29.91,29.74,8,3,21,0.00
2013-12-20,53.5,48.2,44.6,44.1,40.8,36.0,92,76,57,29.86,29.68,9,2,17,0.25
2013-12-21,56.4,49.0,43.1,42.2,39.1,34.8,87,70,46,30.06,29.84,7,2,13,0.01
2013-12-22,59.2,46.8,36.1,42.5,37.0,32.3,93,71,40,30.26,30.06,3,0,6,0.00
2013-12-23,63.2,47.8,33.8,39.0,34.8,28.5,92,65,33,30.33,30.22,4,1,7,0.00
2013-12-24,67.5,51.5,38.3,33.8,29.6,24.9,77,46,22,30.23,30.12,8,2,13,0.00
2013-12-25,66.8,51.1,34.9,35.2,31.1,23.2,84,51,25,30.26,30.14,7,1,9,0.00
2013-12-26,66.3,55.4,46.1,26.9,24.3,21.8,44,31,19,30.23,30.11,8,3,14,0.00
2013-12-27,68.7,54.0,36.9,27.3,22.6,16.9,65,33,15,30.22,30.11,10,4,17,0.00
2013-12-28,64.7,54.2,43.9,32.4,26.9,21.5,51,36,22,30.15,29.97,10,2,13,0.00
2013-12-29,66.0,51.6,37.2,34.0,31.4,28.8,75,48,25,30.15,29.98,6,1,12,0.00
2013-12-30,67.0,49.5,36.0,31.7,29.8,24.1,78,51,22,30.27,30.14,3,1,7,0.00
2013-12-31,72.3,52.6,37.6,30.9,26.7,19.9,66,41,14,30.24,30.09,5,1,12,0.00
2014-1-1,70.8,52.0,38.9,32.1,28.2,23.3,62,43,19,30.18,30.07,3,1,6,0.00
2014-1-2,75.5,56.7,37.1,31.9,27.2,21.9,71,38,14,30.18,30.06,9,2,15,0.00